Hourly Data Report for October 26, 2013

All times are specified in Local Standard Time (LST). Add 1 hour to adjust for Daylight Saving Time where and when it is observed.

KAMLOOPS A
BRITISH COLUMBIA

50°42'09.000" N
120°26'55.000" W
345.30 m
1163781
71887
YKA

Download Data

Hourly Data (October 2013)
Hourly Data Report for October 26, 2013
Temp Definition
°C
Dew Point Temp Definition
°C
Rel Hum Definition
%
Wind Dir Definition
10's deg

Wind Spd Definition
km/h
Visibility Definition
km
Stn Press Definition
kPa
Hmdx Definition


Wind Chill Definition


Weather Definition


TIME
00:00 Legend Double Dagger 5.7 3.2 84 27 6 24.1 98.72     LegendNANA
01:00 Legend Double Dagger 5.1 3.8 91 28 4 16.1 98.72     Drizzle
02:00 Legend Double Dagger 4.9 3.6 91 24 4 16.1 98.74     Drizzle
03:00 Legend Double Dagger 4.7 2.7 87 29 7 16.1 98.74     Drizzle
04:00 Legend Double Dagger 4.6 2.3 85 25 10 24.1 98.79     Drizzle
05:00 Legend Double Dagger 4.7 2.6 86 7 5 24.1 98.72     LegendNANA
06:00 Legend Double Dagger 4.5 2.5 87 27 6 24.1 98.73     Drizzle
07:00 Legend Double Dagger 4.4 2.3 86 26 3 24.1 98.69     Drizzle
08:00 Legend Double Dagger 4.2 2.7 90 28 5 24.1 98.73     Drizzle
09:00 Legend Double Dagger 4.4 2.9 90 1 2 9.7 98.76     Drizzle
10:00 Legend Double Dagger 4.8 3.0 88 8 5 24.1 98.77     Drizzle
11:00 Legend Double Dagger 5.4 3.1 85 12 5 32.2 98.73     LegendNANA
12:00 Legend Double Dagger 5.9 2.6 79 11 3 32.2 98.61     LegendNANA
13:00 Legend Double Dagger 6.5 2.2 74 18 4 48.3 98.51     Cloudy
14:00 Legend Double Dagger 6.7 2.6 75 6 7 48.3 98.42     LegendNANA
15:00 Legend Double Dagger 6.9 2.8 75 19 4 48.3 98.34     LegendNANA
16:00 Legend Double Dagger 6.8 2.7 75 5 6 48.3 98.25     Cloudy
17:00 Legend Double Dagger 6.6 2.9 77 8 6 48.3 98.13     LegendNANA
18:00 Legend Double Dagger 6.5 3.0 78 1 3 48.3 98.07     LegendNANA
19:00 Legend Double Dagger 6.1 3.1 81 29 9 48.3 98.03     Cloudy
20:00 Legend Double Dagger 6.5 3.0 78 22 6 48.3 98.07     LegendNANA
21:00 Legend Double Dagger 6.5 3.1 79 23 3 48.3 98.05     LegendNANA
22:00 Legend Double Dagger 6.1 3.4 83 4 10 48.3 97.97     Cloudy
23:00 Legend Double Dagger 5.9 3.4 84 14 5 48.3 97.82     LegendNANA

Notes on Data Quality.

Legend

  • E = Estimated
  • M = Missing
  • NA = Not Available
  • ‡ = Partner data that is not subject to review by the National Climate Archives
Date modified: